Voltar ao catálogo

HORIZONS 2

AtivoComunicaçõesGEO
NORAD 32388·PAYLOAD· XX

Lançado Dec 21, 2007 de Guiana Space Centre

Loading…

TLE

AtualizadoSource: CelesTrak SupGP

Época: Sep 14, 2026, 00:00 UTC

1 32388C 07063B   26257.00000000 -.00000163  00000+0  00000+0 0  2578
2 32388   2.8247  79.4531 0000728 109.9322  89.8063  1.00275359    18

Acompanhe HORIZONS 2 em tempo real com AllMySat

Download on the App Store